Regional Weather Roundup
Issued by NWS

Home | Current Version | Previous Version | Text Only | Print | Product List | Glossary Off
Versions: 1 2 3 4 5 6 7 8 9 10 11 12 13 14 15 16 17 18 19 20 21 22 23 24 25 26 27 28 29 30 31 32 33 34 35 36 37 38 39 40 41 42 43 44 45 46 47 48 49 50

748
ASUS43 KBIS 251002
RWRND

NORTH DAKOTA REGIONAL WEATHER ROUNDUP
NATIONAL WEATHER SERVICE BISMARCK ND
500 AM CDT SUN SEP 25 2016

NOTE: "FAIR" INDICATES FEW OR NO CLOUDS BELOW 12,000 FEET WITH NO
SIGNIFICANT WEATHER AND/OR OBSTRUCTIONS TO VISIBILITY.


NDZ001>003-009>011-017-251100-
NORTHWEST NORTH DAKOTA

CITY           SKY/WX    TMP DP  RH WIND       PRES   REMARKS
WILLISTON      PTCLDY    49  42  77 NW21G31   30.04R
MINOT          LGT RAIN  52  50  93 NW23G33   29.84R
MINOT AFB      DRIZZLE   51  49  93 NW25G31   29.83R
$$

NDZ018>021-031>035-040>046-251100-
SOUTHWEST NORTH DAKOTA

CITY           SKY/WX    TMP DP  RH WIND       PRES   REMARKS
BISMARCK       LGT RAIN  52  50  93 NW26G37   29.85R
DICKINSON      CLOUDY    48  45  89 NW26G33   30.01R
GARRISON         N/A     50  50 100 NW24G36   29.87R
HETTINGER ARPT CLOUDY    49  44  83 NW22G33   30.05R
$$

NDZ004>008-012>016-024-026-027-054-251100-
NORTHEAST NORTH DAKOTA

CITY           SKY/WX    TMP DP  RH WIND       PRES   REMARKS
GRAND FORKS    CLEAR     58  53  84 S12       29.70F
GRND FRKS AFB  CLEAR     56  51  84 S13       29.71F
DEVILS LAKE    LGT RAIN  57  56  96 W17       29.69F FOG
$$

NDZ022-023-025-028>030-036>039-047>053-251100-
SOUTHEAST NORTH DAKOTA

CITY           SKY/WX    TMP DP  RH WIND       PRES   REMARKS
FARGO          CLEAR     56  50  80 S9        29.77F
JAMESTOWN      PTCLDY    46  45  96 S3        29.75S
$$





USA.gov is the U.S. government's official web portal to all federal, state and local government web resources and services.